Retour au catalogue

CZ-6A DEB

ActifPO
NORAD 61428·DEBRIS·🇨🇳 China

Lancé Aug 6, 2024 depuis Taiyuan Satellite Launch Center

Loading…

Prochains Passages (prochaines 24 heures)

TLE

FraisSource: Space-Track

Époque: Sep 14, 2026, 02:01 UTC

1 61428U 24140YV  26257.08462995  .00001465  00000-0  63338-3 0  9999
2 61428  89.2744 289.4730 0073232 301.3167  58.0869 14.22567539106948

Suivez CZ-6A DEB en temps réel avec AllMySat

Download on the App Store